WA7ZVY-4 Weather Reports


time (UTC)temp
F
wind
direction
speed
knots
gust
knots
rain 1hr
in
rain 24hr
in
rain mn
in
humidity
%
barometer
mb
20260503013744 56 324 7.8 9.6 0.00 0.00 0.00 88 1011.2
20260503013546 56 324 6.1 9.6 0.00 0.00 0.00 87 1011.2
20260503013228 56 330 5.2 9.6 0.00 0.00 0.00 87 1011.3
20260503013039 56 330 6.1 9.6 0.00 0.00 0.00 87 1011.3
20260503012712 56 312 6.1 9.6 0.00 0.00 0.00 87 1011.4
20260503012532 56 333 5.2 9.6 0.00 0.00 0.00 86 1011.4
20260503012154 56 295 7.0 9.6 0.00 0.00 0.00 86 1011.3
20260503012025 57 303 5.2 8.7 0.00 0.00 0.00 86 1011.3
20260503011636 57 302 4.3 8.7 0.00 0.00 0.00 85 1011.3
20260503011518 57 302 5.2 8.7 0.00 0.00 0.00 85 1011.4
20260503011119 57 308 4.3 7.0 0.00 0.00 0.00 85 1011.5
20260503011011 57 301 3.5 7.0 0.00 0.00 0.00 85 1011.4
20260503010602 57 302 5.2 7.0 0.00 0.00 0.00 85 1011.5
20260503010504 57 32 2.6 2.6 0.00 0.00 0.00 85 1011.5
20260503010045 57 309 6.1 11.3 0.00 0.00 0.00 84 1011.5
20260503005957 57 309 4.3 11.3 0.00 0.00 0.00 84 1011.5
20260503005528 58 294 7.0 11.3 0.00 0.00 0.00 83 1011.5
20260503005450 58 294 7.0 11.3 0.00 0.00 0.00 83 1011.6
20260503005011 58 322 4.3 11.3 0.00 0.00 0.00 83 1011.6
20260503004943 58 322 7.0 11.3 0.00 0.00 0.00 83 1011.6
20260503004454 59 23 2.6 8.7 0.00 0.00 0.00 83 1011.6
20260503004436 59 23 4.3 8.7 0.00 0.00 0.00 82 1011.6
20260503003928 59 334 6.1 8.7 0.00 0.00 0.00 83 1011.6
20260503003420 59 54 5.2 8.7 0.00 0.00 0.00 84 1011.6
20260503002904 59 79 3.5 8.7 0.00 0.00 0.00 83 1011.5
20260503002408 59 341 7.0 11.3 0.00 0.00 0.00 85 1011.6
20260503002346 59 350 3.5 11.3 0.00 0.00 0.00 84 1011.6
20260503001900 58 333 6.1 11.3 0.00 0.00 0.00 85 1011.6
20260503001829 58 319 2.6 11.3 0.00 0.00 0.00 85 1011.7
20260503001354 57 50 4.3 11.3 0.00 0.00 0.00 85 1011.6
20260503001312 57 303 2.6 11.3 0.00 0.00 0.00 85 1011.6
20260503000847 57 329 3.5 11.3 0.00 0.00 0.00 85 1011.7
20260503000755 57 313 7.8 11.3 0.00 0.00 0.00 86 1011.7
20260503000339 57 296 6.1 9.6 0.00 0.00 0.00 85 1011.6
20260503000240 57 347 6.1 9.6 0.00 0.00 0.00 85 1011.7
20260502235832 57 316 5.2 9.6 0.00 0.00 0.00 85 1011.7
20260502235721 57 37 6.1 9.6 0.00 0.00 0.00 85 1011.8
20260502235325 57 11 3.5 8.7 0.00 0.00 0.00 85 1011.9
20260502235204 57 327 4.3 7.0 0.00 0.00 0.00 85 1012.0
20260502234819 57 4 2.6 3.5 0.00 0.00 0.00 84 1012.0
20260502234648 57 354 3.5 11.3 0.00 0.00 0.00 84 1012.1
20260502234312 58 15 0.9 11.3 0.00 0.00 0.00 84 1012.0
20260502234130 58 306 5.2 11.3 0.00 0.00 0.00 83 1012.1
20260502233805 58 46 1.7 11.3 0.00 0.00 0.00 83 1012.1
20260502233613 58 310 6.1 11.3 0.00 0.00 0.00 83 1012.1
20260502233258 58 312 5.2 11.3 0.00 0.00 0.00 82 1011.8
20260502233056 58 312 9.6 11.3 0.00 0.00 0.00 81 1011.9
20260502232750 59 0 6.1 11.3 0.00 0.00 0.00 80 1012.0
20260502232539 59 268 8.7 11.3 0.00 0.00 0.00 80 1012.1
20260502232244 59 19 7.0 10.4 0.00 0.00 0.00 80 1012.0
20260502232022 59 19 6.1 10.4 0.00 0.00 0.00 80 1012.1
20260502231736 60 319 4.3 10.4 0.00 0.00 0.00 80 1012.2
20260502231230 60 305 7.0 10.4 0.00 0.00 0.00 80 1012.3
20260502230948 59 274 4.3 10.4 0.00 0.00 0.00 79 1012.4
20260502230722 60 330 6.1 10.4 0.00 0.00 0.00 78 1012.4
20260502230431 60 317 4.3 9.6 0.00 0.00 0.00 77 1012.5
20260502230215 60 334 7.0 9.6 0.00 0.00 0.00 77 1012.5
20260502225914 61 334 6.1 9.6 0.00 0.00 0.00 77 1012.5
20260502225708 61 327 5.2 8.7 0.00 0.00 0.00 77 1012.3
20260502225357 61 327 4.3 13.9 0.00 0.00 0.00 77 1012.4
20260502225201 61 22 7.0 13.9 0.00 0.00 0.00 77 1012.4
20260502224840 61 322 5.2 13.9 0.00 0.00 0.00 78 1012.4
20260502224654 61 317 7.0 13.9 0.00 0.00 0.00 78 1012.5
20260502224324 61 19 7.8 13.9 0.00 0.00 0.00 80 1012.6
20260502224147 61 26 8.7 13.9 0.00 0.00 0.00 81 1012.7
20260502223806 60 337 7.0 8.7 0.00 0.00 0.00 81 1012.7
20260502223640 60 303 6.1 8.7 0.00 0.00 0.00 82 1012.8
20260502223249 59 25 6.1 7.8 0.00 0.00 0.00 82 1012.9
20260502223133 59 25 5.2 7.8 0.00 0.00 0.00 82 1012.9
20260502222732 59 347 4.3 12.2 0.00 0.00 0.00 82 1013.0
20260502222626 59 347 4.3 12.2 0.00 0.00 0.00 81 1013.0
20260502222215 59 313 7.8 12.2 0.00 0.00 0.00 82 1013.0
20260502222119 59 313 7.0 12.2 0.00 0.00 0.00 82 1013.0
20260502221658 59 343 6.1 12.2 0.00 0.00 0.00 83 1013.1
20260502221612 59 343 7.0 12.2 0.00 0.00 0.00 82 1013.0
20260502221141 59 36 6.1 7.8 0.00 0.00 0.00 83 1013.0
20260502221105 59 36 5.2 7.8 0.00 0.00 0.00 83 1013.0
20260502220624 58 7 7.0 12.2 0.00 0.00 0.00 84 1013.1
20260502220559 58 7 6.1 12.2 0.00 0.00 0.00 84 1013.1
20260502220107 58 347 4.3 12.2 0.00 0.00 0.00 84 1013.1
20260502220051 58 347 4.3 12.2 0.00 0.00 0.00 84 1013.1
20260502215550 58 336 7.0 12.2 0.00 0.00 0.00 84 1013.2
20260502215544 58 336 6.1 12.2 0.00 0.00 0.00 84 1013.2
20260502215037 58 326 7.0 9.6 0.00 0.00 0.00 83 1013.1
20260502215033 58 326 7.0 9.6 0.00 0.00 0.00 83 1013.1
20260502214516 58 317 8.7 9.6 0.00 0.00 0.00 81 1013.1
20260502214023 59 334 5.2 8.7 0.00 0.00 0.00 82 1013.1
20260502213959 59 334 7.0 8.7 0.00 0.00 0.00 82 1013.1
20260502213516 59 32 4.3 9.6 0.00 0.00 0.00 83 1013.2
20260502213442 59 319 6.1 9.6 0.00 0.00 0.00 83 1013.2
20260502213010 58 11 2.6 9.6 0.00 0.00 0.00 83 1013.2
20260502212925 58 11 3.5 9.6 0.00 0.00 0.00 83 1013.2
20260502212502 58 302 7.8 9.6 0.00 0.00 0.00 83 1013.1
20260502212408 58 302 7.0 9.6 0.00 0.00 0.00 84 1013.2
20260502211955 58 313 5.2 9.6 0.00 0.00 0.00 82 1013.2
20260502211851 58 313 7.0 9.6 0.00 0.00 0.00 82 1013.3
20260502211448 59 296 6.1 8.7 0.00 0.00 0.00 80 1013.4
20260502211334 59 322 6.1 8.7 0.00 0.00 0.00 81 1013.4
20260502210941 60 326 6.1 8.7 0.00 0.00 0.00 82 1013.5
20260502210817 59 337 5.2 8.7 0.00 0.00 0.00 83 1013.5
20260502210434 59 316 7.0 11.3 0.00 0.00 0.00 83 1013.7
20260502210300 59 0 0.0 11.3 0.00 0.00 0.00 82 1013.7
20260502205927 59 337 7.8 11.3 0.00 0.00 0.00 82 1013.5
20260502205743 59 320 6.1 11.3 0.00 0.00 0.00 82 1013.5
20260502205420 59 320 6.1 11.3 0.00 0.00 0.00 81 1013.5
20260502205226 59 331 8.7 11.3 0.00 0.00 0.00 81 1013.6
20260502204914 59 317 7.0 11.3 0.00 0.00 0.00 82 1013.6
20260502204709 59 310 8.7 11.3 0.00 0.00 0.00 82 1013.6
20260502204406 59 322 7.0 9.6 0.00 0.00 0.00 83 1013.8
20260502204152 60 340 7.0 9.6 0.00 0.00 0.00 83 1013.8
20260502203859 59 298 5.2 7.8 0.00 0.00 0.00 86 1013.8
20260502203635 59 305 3.5 12.2 0.00 0.00 0.00 87 1013.8
20260502203352 58 23 4.3 12.2 0.00 0.00 0.00 87 1013.8
20260502203118 58 331 7.0 12.2 0.00 0.00 0.00 87 1013.9
20260502202845 57 14 3.5 12.2 0.00 0.00 0.00 88 1014.0
20260502202602 57 302 6.1 12.2 0.00 0.00 0.00 88 1014.0
20260502202338 57 312 4.3 12.2 0.00 0.00 0.00 88 1014.1
20260502202044 56 329 9.6 12.2 0.00 0.00 0.00 88 1014.1
20260502201832 56 5 0.9 8.7 0.00 0.00 0.00 89 1014.1
20260502201528 56 326 4.3 8.7 0.00 0.00 0.00 88 1014.1
20260502201324 56 326 7.0 8.7 0.00 0.00 0.00 88 1014.3
20260502201010 57 29 5.2 8.7 0.00 0.00 0.00 89 1014.2
20260502200818 57 357 2.6 8.7 0.00 0.00 0.00 88 1014.3
20260502200453 57 53 6.1 8.7 0.00 0.00 0.00 89 1014.3
20260502200310 57 343 5.2 8.7 0.00 0.00 0.00 90 1014.4
20260502195936 56 326 5.2 8.7 0.00 0.00 0.00 90 1014.4
20260502195803 56 0 2.6 8.7 0.00 0.00 0.00 90 1014.5
20260502195419 55 0 0.0 7.0 0.00 0.00 0.00 90 1014.5
20260502195256 55 0 0.0 7.0 0.00 0.00 0.00 89 1014.5
20260502194902 55 357 1.7 7.0 0.00 0.00 0.00 89 1014.5
20260502194749 55 33 3.5 7.0 0.00 0.00 0.00 88 1014.5
20260502194345 55 12 1.7 4.3 0.00 0.00 0.00 88 1014.5
20260502194242 55 18 2.6 9.6 0.00 0.00 0.00 87 1014.5
20260502193828 55 327 1.7 9.6 0.00 0.00 0.00 86 1014.6
20260502193735 55 317 2.6 9.6 0.00 0.00 0.00 86 1014.7
20260502193228 55 22 5.2 9.6 0.00 0.00 0.00 85 1014.6
20260502192721 55 2 4.3 9.6 0.00 0.00 0.00 84 1014.8
20260502192237 56 310 4.3 8.7 0.00 0.00 0.00 82 1014.9
20260502192214 56 310 6.1 8.7 0.00 0.00 0.00 82 1014.9
20260502191720 57 344 1.7 4.3 0.00 0.00 0.00 81 1015.1
20260502191707 57 344 1.7 4.3 0.00 0.00 0.00 81 1015.1
20260502191200 58 266 1.7 6.1 0.00 0.00 0.00 81 1015.1
20260502190646 59 14 2.6 6.1 0.00 0.00 0.00 82 1015.2
20260502190146 58 326 2.6 6.1 0.00 0.00 0.00 83 1015.1
20260502190129 58 326 2.6 6.1 0.00 0.00 0.00 83 1015.1
20260502185639 58 341 4.3 6.1 0.00 0.00 0.00 83 1015.1
20260502185612 58 341 5.2 6.1 0.00 0.00 0.00 83 1015.2
20260502185132 57 323 3.5 9.6 0.00 0.00 0.00 81 1015.2
20260502185055 57 323 3.5 9.6 0.00 0.00 0.00 81 1015.2
20260502184625 58 331 6.1 9.6 0.00 0.00 0.00 82 1015.1
20260502184538 58 331 6.1 9.6 0.00 0.00 0.00 82 1015.2
20260502184118 58 327 5.2 9.6 0.00 0.00 0.00 83 1015.3
20260502184021 58 327 6.1 9.6 0.00 0.00 0.00 84 1015.3
20260502183504 57 291 2.6 6.1 0.00 0.00 0.00 85 1015.5
20260502183104 56 333 5.2 6.1 0.00 0.00 0.00 85 1015.4
20260502182947 56 333 4.3 8.7 0.00 0.00 0.00 86 1015.5
20260502182557 56 357 3.5 8.7 0.00 0.00 0.00 86 1015.5
20260502182430 56 357 4.3 8.7 0.00 0.00 0.00 87 1015.5
20260502182050 55 37 3.5 8.7 0.00 0.00 0.00 88 1015.6
20260502181913 55 37 3.5 8.7 0.00 0.00 0.00 88 1015.6
20260502181544 55 25 3.5 8.7 0.00 0.00 0.00 88 1015.6
20260502181036 54 357 6.1 7.8 0.00 0.00 0.00 88 1015.6
20260502180839 54 26 4.3 6.1 0.00 0.00 0.00 88 1015.7
20260502180529 54 15 2.6 6.1 0.00 0.00 0.00 88 1015.7
20260502180323 54 337 3.5 6.1 0.00 0.00 0.00 88 1015.6
20260502170516 53 317 4.3 7.0 0.00 0.00 0.00 90 1015.5
20260502170405 53 317 6.1 7.0 0.00 0.00 0.00 91 1015.6
20260502164337 53 0 0.0 6.1 0.00 0.00 0.00 92 1015.4
20260502163850 53 326 3.5 5.2 0.00 0.00 0.00 92 1015.6
20260502163830 53 326 4.3 5.2 0.00 0.00 0.00 92 1015.6
20260502163333 53 357 0.9 5.2 0.00 0.00 0.00 92 1015.6
20260502163323 53 357 0.9 5.2 0.00 0.00 0.00 92 1015.6
20260502162816 53 7 3.5 5.2 0.00 0.00 0.00 93 1015.7
20260502162309 53 0 0.0 5.2 0.00 0.00 0.00 93 1015.6
20260502162259 53 0 0.0 5.2 0.00 0.00 0.00 93 1015.6
20260502161802 53 306 0.9 5.2 0.00 0.00 0.00 94 1015.6
20260502161742 53 305 2.6 5.2 0.00 0.00 0.00 94 1015.6
20260502161255 53 338 2.6 5.2 0.00 0.00 0.00 94 1015.5
20260502161225 53 338 4.3 5.2 0.00 0.00 0.00 94 1015.6
20260502160748 52 7 0.9 3.5 0.00 0.00 0.00 95 1015.6
20260502160708 52 7 0.9 3.5 0.00 0.00 0.00 95 1015.6
20260502160241 52 0 0.0 3.5 0.00 0.00 0.00 95 1015.8
20260502160151 52 0 0.0 3.5 0.00 0.00 0.00 95 1015.7
20260502151935 51 21 1.7 6.1 0.00 0.00 0.00 97 1016.0
20260502151638 51 22 2.6 6.1 0.00 0.00 0.00 97 1016.0
20260502151418 51 22 5.2 6.1 0.00 0.00 0.00 97 1016.1
20260502151131 51 0 0.0 0.0 0.00 0.00 0.00 97 1016.0
20260502150901 51 0 0.0 0.0 0.00 0.00 0.00 97 1015.9
20260502150624 51 5 6.1 7.0 0.00 0.00 0.00 97 1016.0
20260502150344 51 357 1.7 7.0 0.00 0.00 0.00 97 1016.0
20260502150117 51 317 1.7 7.0 0.00 0.00 0.00 97 1016.0
20260502130729 50 348 0.9 7.8 0.00 0.00 0.00 95 1015.8
20260502130336 50 348 0.9 7.8 0.00 0.00 0.00 95 1015.8
20260502130213 50 357 3.5 7.8 0.00 0.00 0.00 95 1015.8
20260502123801 50 0 0.0 4.3 0.00 0.00 0.00 95 1015.9
20260502123254 50 0 0.0 6.1 0.00 0.00 0.00 95 1016.0
20260502123031 50 345 1.7 6.1 0.00 0.00 0.00 95 1016.0
20260502122747 50 322 1.7 6.1 0.00 0.00 0.00 95 1016.1
20260502122515 50 322 1.7 6.1 0.00 0.00 0.00 95 1016.2
20260502121957 50 77 4.3 6.1 0.00 0.00 0.00 95 1016.2
20260502121733 50 33 2.6 6.1 0.00 0.00 0.00 95 1016.2
20260502121439 50 12 1.7 4.3 0.00 0.00 0.00 95 1016.1
20260502121226 50 306 1.7 4.3 0.00 0.00 0.00 95 1016.1
20260502120922 50 0 0.0 4.3 0.00 0.00 0.00 95 1016.1
20260502120719 50 0 0.0 4.3 0.00 0.00 0.00 95 1016.2
20260502120405 50 0 0.0 4.3 0.00 0.00 0.00 95 1016.2
20260502120212 50 0 0.0 4.3 0.00 0.00 0.00 95 1016.2
20260502115849 50 0 0.0 4.3 0.00 0.00 0.00 95 1016.1
20260502115705 50 8 1.7 4.3 0.00 0.00 0.00 95 1016.1
20260502115158 50 4 2.6 7.0 0.00 0.00 0.00 95 1016.1
20260502114814 50 36 0.9 7.0 0.00 0.00 0.00 95 1016.0
20260502114651 50 36 1.7 7.0 0.00 0.00 0.00 95 1016.1
20260502114258 50 0 0.0 7.0 0.00 0.00 0.00 95 1016.1
20260502114145 50 37 3.5 7.0 0.00 0.00 0.00 95 1016.1
20260502113741 50 50 2.6 6.1 0.00 0.00 0.00 95 1016.1
20260502113637 50 50 2.6 6.1 0.00 0.00 0.00 95 1016.1
20260502113224 50 5 3.5 9.6 0.00 0.00 0.00 95 1016.0
20260502113129 50 5 3.5 9.6 0.00 0.00 0.00 95 1016.0
20260502112706 50 19 3.5 9.6 0.00 0.00 0.00 95 1016.1
20260502112622 50 19 3.5 9.6 0.00 0.00 0.00 95 1016.1
20260502112149 50 357 2.6 9.6 0.00 0.00 0.00 95 1016.0
20260502112115 50 357 4.3 9.6 0.00 0.00 0.00 95 1016.0
20260502111633 50 8 4.3 8.7 0.00 0.00 0.00 95 1016.0
20260502111608 50 8 2.6 8.7 0.00 0.00 0.00 95 1016.0
20260502111116 50 357 5.2 8.7 0.00 0.00 0.00 95 1016.0
20260502111102 50 357 6.1 8.7 0.00 0.00 0.00 95 1016.0
20260502110555 50 8 7.0 8.7 0.00 0.00 0.00 95 1015.9
20260502110042 50 14 2.6 8.7 0.00 0.00 0.00 95 1015.9
20260502105540 50 355 7.8 8.7 0.00 0.00 0.00 95 1016.0
20260502105526 50 355 7.0 8.7 0.00 0.00 0.00 95 1015.9
20260502105034 50 22 6.1 11.3 0.00 0.00 0.00 95 1016.1
20260502105010 50 25 6.1 11.3 0.00 0.00 0.00 95 1016.1
20260502104450 50 312 4.3 11.3 0.00 0.00 0.00 95 1016.2
20260502104020 50 357 1.7 11.3 0.00 0.00 0.00 95 1016.1
20260502103933 50 0 0.0 11.3 0.00 0.00 0.00 95 1016.1
20260502103416 50 312 7.0 7.8 0.00 0.00 0.00 95 1016.2
20260502103005 50 19 5.2 7.0 0.00 0.00 0.00 95 1016.1
20260502102859 50 357 3.5 7.0 0.00 0.00 0.00 95 1016.1
20260502102458 50 29 4.3 5.2 0.00 0.00 0.00 95 1016.1
20260502102342 50 29 1.7 4.3 0.00 0.00 0.00 95 1016.2
20260502101951 50 33 4.3 8.7 0.00 0.00 0.00 95 1016.2
20260502101825 50 40 1.7 8.7 0.00 0.00 0.00 95 1016.2
20260502101445 50 352 3.5 8.7 0.00 0.00 0.00 95 1016.3
20260502101309 50 352 6.1 8.7 0.00 0.00 0.00 94 1016.3
20260502100938 50 64 6.1 8.7 0.00 0.00 0.00 94 1016.3
20260502100751 50 0 0.0 8.7 0.00 0.00 0.00 94 1016.3
20260502100432 50 7 5.2 7.0 0.00 0.00 0.00 94 1016.3
20260502100234 50 348 4.3 6.1 0.00 0.00 0.00 94 1016.4
20260502091501 50 308 2.6 7.8 0.00 0.00 0.00 94 1016.5
20260502091320 50 308 6.1 7.8 0.00 0.00 0.00 94 1016.5
20260502090945 50 320 2.6 7.8 0.00 0.00 0.00 94 1016.6
20260502090813 50 0 0.0 7.8 0.00 0.00 0.00 94 1016.7
20260502090427 50 26 3.5 7.8 0.00 0.00 0.00 94 1016.7
20260502090307 50 26 6.1 7.8 0.00 0.00 0.00 94 1016.7
20260502080103 50 23 5.2 11.3 0.00 0.00 0.00 94 1017.1
20260502071331 51 303 6.1 8.7 0.00 0.00 0.00 94 1017.2
20260502071032 50 65 3.5 8.7 0.00 0.00 0.00 94 1017.2
20260502070813 51 357 5.2 8.7 0.00 0.00 0.00 94 1017.2
20260502070525 51 14 3.5 8.7 0.00 0.00 0.00 94 1017.1
20260502070256 51 337 7.0 8.7 0.00 0.00 0.00 94 1017.2
20260502070018 51 337 6.1 8.7 0.00 0.00 0.00 94 1017.3
20260502065739 51 11 7.0 8.7 0.00 0.00 0.00 93 1017.2
20260502065511 51 11 6.1 8.7 0.00 0.00 0.00 93 1017.2
20260502065222 51 33 5.2 8.7 0.00 0.00 0.00 93 1017.2
20260502065004 51 33 6.1 8.7 0.00 0.00 0.00 93 1017.2
20260502064707 51 322 6.1 8.7 0.00 0.00 0.00 93 1017.1
20260502064457 51 357 2.6 12.2 0.00 0.00 0.00 93 1017.1
20260502064151 51 313 5.2 12.2 0.00 0.00 0.00 93 1017.2
20260502063950 51 5 4.3 12.2 0.00 0.00 0.00 93 1017.2
20260502063632 51 9 7.8 12.2 0.00 0.00 0.00 93 1017.2
20260502063443 51 40 4.3 12.2 0.00 0.00 0.00 93 1017.2
20260502063115 51 25 5.2 12.2 0.00 0.00 0.00 93 1017.2
20260502062936 51 25 8.7 12.2 0.00 0.00 0.00 93 1017.2
20260502062557 51 11 7.0 10.4 0.00 0.00 0.00 93 1017.2
20260502062429 51 11 7.0 10.4 0.00 0.00 0.00 93 1017.2
20260502062040 51 32 7.0 8.7 0.00 0.00 0.00 93 1017.3
20260502061923 51 32 6.1 8.7 0.00 0.00 0.00 93 1017.3
20260502061523 51 14 3.5 7.0 0.00 0.00 0.00 93 1017.4
20260502061415 51 14 5.2 7.0 0.00 0.00 0.00 93 1017.4
20260502060908 51 352 1.7 7.0 0.00 0.00 0.00 93 1017.4
20260502060449 51 33 7.0 7.0 0.00 0.00 0.00 93 1017.3
20260502055854 51 2 4.3 4.3 0.00 0.00 0.00 93 1017.3
20260502055415 51 273 6.1 7.8 0.00 0.00 0.00 93 1017.3
20260502055347 51 273 3.5 7.8 0.00 0.00 0.00 93 1017.3
20260502054858 51 281 4.3 7.8 0.00 0.00 0.00 93 1017.2
20260502054840 51 0 0.0 7.8 0.00 0.00 0.00 93 1017.2
20260502054333 51 82 3.5 7.8 0.00 0.00 0.00 94 1017.3
20260502053307 51 0 0.0 10.4 0.00 0.00 0.00 93 1017.6
20260502052812 51 327 0.9 10.4 0.00 0.00 0.00 93 1017.5
20260502052750 51 21 4.3 10.4 0.00 0.00 0.00 93 1017.5
20260502052306 51 0 0.0 10.4 0.00 0.00 0.00 93 1017.5
20260502052233 51 280 7.8 10.4 0.00 0.00 0.00 93 1017.5
20260502051758 51 280 9.6 11.3 0.00 0.00 0.00 93 1017.5
20260502051716 51 312 7.0 11.3 0.00 0.00 0.00 93 1017.5
20260502051251 51 50 2.6 11.3 0.00 0.00 0.00 93 1017.5
20260502051159 51 50 2.6 11.3 0.00 0.00 0.00 93 1017.5
20260502050744 51 35 2.6 11.3 0.00 0.00 0.00 93 1017.5
20260502050642 51 35 5.2 11.3 0.00 0.00 0.00 93 1017.5
20260502050238 51 32 5.2 11.3 0.00 0.00 0.00 93 1017.5
20260502050125 51 32 7.8 11.3 0.00 0.00 0.00 93 1017.4
20260502045730 51 28 3.5 9.6 0.00 0.00 0.00 93 1017.5
20260502045608 51 28 6.1 9.6 0.00 0.00 0.00 93 1017.5
20260502045222 51 8 4.3 9.6 0.00 0.00 0.00 93 1017.4
20260502045051 51 8 6.1 9.6 0.00 0.00 0.00 93 1017.5
20260502044716 51 11 7.8 11.3 0.00 0.00 0.00 93 1017.3
20260502044535 51 18 4.3 11.3 0.00 0.00 0.00 93 1017.4
20260502044209 51 312 6.1 11.3 0.00 0.00 0.00 93 1017.4
20260502044017 51 312 4.3 11.3 0.00 0.00 0.00 93 1017.3
20260502043500 51 18 3.5 11.3 0.00 0.00 0.00 94 1017.3
20260502043155 51 32 5.2 11.3 0.00 0.00 0.00 93 1017.2
20260502042943 51 333 1.7 9.6 0.00 0.00 0.00 93 1017.3
20260502042648 51 305 3.5 9.6 0.00 0.00 0.00 93 1017.2
20260502042426 51 305 3.5 9.6 0.00 0.00 0.00 93 1017.2
20260502042141 51 21 6.1 9.6 0.00 0.00 0.00 93 1017.2
20260502041909 51 21 8.7 9.6 0.00 0.00 0.00 93 1017.2
20260502041634 51 324 3.5 7.8 0.00 0.00 0.00 93 1017.2
20260502041352 51 324 4.3 7.8 0.00 0.00 0.00 93 1017.3
20260502041127 51 324 5.2 7.8 0.00 0.00 0.00 93 1017.2
20260502040835 51 351 2.6 7.8 0.00 0.00 0.00 93 1017.2
20260502040620 51 37 6.1 7.8 0.00 0.00 0.00 93 1017.1
20260502040318 51 0 0.0 7.0 0.00 0.00 0.00 93 1017.2
20260502040113 51 329 4.3 7.0 0.00 0.00 0.00 93 1017.2
20260502035801 51 0 0.0 7.8 0.00 0.00 0.00 93 1017.1
20260502035606 51 21 2.6 7.8 0.00 0.00 0.00 93 1017.1
20260502035244 51 287 7.0 7.8 0.00 0.00 0.00 92 1017.1
20260502035059 51 37 1.7 7.8 0.00 0.00 0.00 92 1017.1
20260502034727 51 14 3.5 7.8 0.00 0.00 0.00 92 1017.1
20260502034552 51 14 3.5 7.8 0.00 0.00 0.00 92 1017.1
20260502034210 51 357 6.1 7.8 0.00 0.00 0.00 92 1017.1
20260502033653 51 15 5.2 7.8 0.00 0.00 0.00 92 1017.0
20260502033538 51 15 5.2 7.8 0.00 0.00 0.00 92 1017.0
20260502033136 51 320 3.5 7.8 0.00 0.00 0.00 92 1017.1
20260502033031 51 320 3.5 7.8 0.00 0.00 0.00 91 1017.1
20260502032619 52 324 4.3 11.3 0.00 0.00 0.00 91 1017.0
20260502032102 52 312 7.0 11.3 0.00 0.00 0.00 91 1017.0
20260502032017 51 334 6.1 11.3 0.00 0.00 0.00 91 1017.0
20260502031545 52 331 7.0 11.3 0.00 0.00 0.00 91 1017.0
20260502031029 52 15 5.2 11.3 0.00 0.00 0.00 91 1017.0
20260502031003 52 15 7.0 11.3 0.00 0.00 0.00 91 1017.0
20260502030456 52 355 0.9 1.7 0.00 0.00 0.00 92 1016.9
20260502025954 52 12 5.2 10.4 0.00 0.00 0.00 92 1016.9
20260502025949 52 12 4.3 10.4 0.00 0.00 0.00 92 1016.9
20260502025442 52 40 4.3 10.4 0.00 0.00 0.00 92 1016.9
20260502025437 52 40 5.2 10.4 0.00 0.00 0.00 92 1016.9
20260502024935 52 274 0.9 10.4 0.00 0.00 0.00 92 1016.9
20260502024920 52 274 0.9 10.4 0.00 0.00 0.00 92 1017.1
20260502024428 52 26 7.8 9.6 0.00 0.00 0.00 92 1017.0
20260502024403 52 26 8.7 9.6 0.00 0.00 0.00 92 1017.0
20260502023921 52 9 5.2 12.2 0.00 0.00 0.00 92 1017.0
20260502023846 52 14 3.5 12.2 0.00 0.00 0.00 92 1016.9
20260502023414 52 2 3.5 12.2 0.00 0.00 0.00 92 1016.8
20260502023329 52 2 5.2 12.2 0.00 0.00 0.00 92 1016.8
20260502022907 52 337 4.3 12.2 0.00 0.00 0.00 92 1016.8
20260502022812 52 26 2.6 12.2 0.00 0.00 0.00 92 1016.8
20260502022400 52 36 7.0 12.2 0.00 0.00 0.00 92 1016.8
20260502021853 52 15 5.2 11.3 0.00 0.00 0.00 92 1016.8
20260502021738 52 288 6.1 10.4 0.00 0.00 0.00 92 1016.8
20260502021346 52 323 4.3 10.4 0.00 0.00 0.00 92 1016.7
20260502021221 52 324 6.1 10.4 0.00 0.00 0.00 92 1016.7
20260502020839 52 8 4.3 10.4 0.00 0.00 0.00 92 1016.7
20260502020704 52 306 4.3 10.4 0.00 0.00 0.00 92 1016.7
20260502020332 52 21 3.5 10.4 0.00 0.00 0.00 92 1016.8
20260502020148 52 18 7.0 10.4 0.00 0.00 0.00 93 1016.8
20260502015825 52 4 2.6 7.8 0.00 0.00 0.00 93 1016.7
20260502015630 52 327 4.3 7.8 0.00 0.00 0.00 93 1016.7
20260502015318 52 0 0.0 7.0 0.00 0.00 0.00 93 1016.7
20260502015115 52 326 3.5 7.0 0.00 0.00 0.00 93 1016.8
20260502014811 52 0 0.0 9.6 0.00 0.00 0.00 93 1016.8
20260502014556 52 305 4.3 9.6 0.00 0.00 0.00 93 1016.8
20260502014304 53 2 3.5 9.6 0.00 0.00 0.00 93 1016.8
20260502014039 53 312 7.0 9.6 0.00 0.00 0.00 93 1016.8